| time (UTC) | temp F | wind direction | speed MPH | gust MPH | rain 1hr in | rain 24hr in | rain mn in | humidity % | barometer mb |
| 20260504231541 | 69 | 195 | 2.0 | 12.0 | 0.00 | 0.00 | 0.00 | 38 | 1006.7 |
| 20260504230039 | 71 | 209 | 0.0 | 6.0 | 0.00 | 0.00 | 0.00 | 35 | 1006.7 |
| 20260504224541 | 72 | 0 | 0.0 | 11.0 | 0.00 | 0.00 | 0.00 | 32 | 1006.7 |
| 20260504223037 | 72 | 163 | 2.0 | 9.0 | 0.00 | 0.00 | 0.00 | 35 | 1006.8 |
| 20260504221538 | 72 | 161 | 1.0 | 8.0 | 0.00 | 0.00 | 0.00 | 32 | 1006.8 |
| 20260504220036 | 72 | 178 | 2.0 | 10.0 | 0.00 | 0.00 | 0.00 | 33 | 1007.0 |
| 20260504214548 | 73 | 0 | 4.0 | 12.0 | 0.00 | 0.00 | 0.00 | 32 | 1007.0 |
| 20260504213047 | 73 | 161 | 2.0 | 10.0 | 0.00 | 0.00 | 0.00 | 34 | 1006.9 |
| 20260504211538 | 73 | 198 | 6.0 | 16.0 | 0.00 | 0.00 | 0.00 | 31 | 1006.9 |
| 20260504210037 | 71 | 163 | 5.0 | 12.0 | 0.00 | 0.00 | 0.00 | 34 | 1007.3 |
| 20260504204539 | 73 | 200 | 3.0 | 13.0 | 0.00 | 0.00 | 0.00 | 33 | 1007.2 |
| 20260504203041 | 72 | 321 | 2.0 | 9.0 | 0.00 | 0.00 | 0.00 | 33 | 1007.2 |
| 20260504201538 | 73 | 229 | 1.0 | 9.0 | 0.00 | 0.00 | 0.00 | 36 | 1007.3 |
| 20260504200043 | 71 | 117 | 5.0 | 13.0 | 0.00 | 0.00 | 0.00 | 38 | 1007.5 |
| 20260504194546 | 71 | 0 | 3.0 | 11.0 | 0.00 | 0.00 | 0.00 | 42 | 1007.7 |
| 20260504193040 | 69 | 194 | 3.0 | 12.0 | 0.00 | 0.00 | 0.00 | 38 | 1008.0 |
| 20260504191551 | 70 | 205 | 5.0 | 11.0 | 0.00 | 0.00 | 0.00 | 40 | 1008.1 |
| 20260504190043 | 70 | 197 | 3.0 | 8.0 | 0.00 | 0.00 | 0.00 | 42 | 1008.2 |
| 20260504184551 | 70 | 192 | 0.0 | 12.0 | 0.00 | 0.00 | 0.00 | 46 | 1008.3 |
| 20260504183047 | 69 | 157 | 3.0 | 16.0 | 0.00 | 0.00 | 0.00 | 42 | 1008.6 |
| 20260504181545 | 70 | 166 | 4.0 | 11.0 | 0.00 | 0.00 | 0.00 | 42 | 1008.8 |
| 20260504180041 | 69 | 339 | 2.0 | 10.0 | 0.00 | 0.00 | 0.00 | 44 | 1008.8 |
| 20260504174542 | 68 | 202 | 4.0 | 17.0 | 0.00 | 0.00 | 0.00 | 44 | 1008.9 |
| 20260504173040 | 67 | 254 | 3.0 | 13.0 | 0.00 | 0.00 | 0.00 | 44 | 1009.0 |
| 20260504171538 | 67 | 194 | 4.0 | 14.0 | 0.00 | 0.00 | 0.00 | 45 | 1008.9 |
| 20260504081541 | 42 | 0 | 1.0 | 3.0 | 0.00 | 0.00 | 0.00 | 80 | 1011.7 |
| 20260504044543 | 45 | 0 | 0.0 | 1.0 | 0.00 | 0.00 | 0.00 | 71 | 1012.1 |
| 20260504043040 | 46 | 0 | 0.0 | 0.0 | 0.00 | 0.00 | 0.00 | 69 | 1012.1 |
| 20260504041538 | 47 | 0 | 0.0 | 1.0 | 0.00 | 0.00 | 0.00 | 69 | 1012.1 |
| 20260504040046 | 48 | 0 | 0.0 | 2.0 | 0.00 | 0.00 | 0.00 | 68 | 1012.2 |
| 20260504034555 | 48 | 0 | 0.0 | 0.0 | 0.00 | 0.00 | 0.00 | 65 | 1012.3 |
| 20260504033050 | 49 | 0 | 0.0 | 0.0 | 0.00 | 0.00 | 0.00 | 62 | 1012.3 |
| 20260504031541 | 50 | 0 | 0.0 | 0.0 | 0.00 | 0.00 | 0.00 | 56 | 1012.4 |
| 20260504030045 | 51 | 0 | 0.0 | 0.0 | 0.00 | 0.00 | 0.00 | 58 | 1012.4 |
| 20260504024537 | 51 | 0 | 0.0 | 0.0 | 0.00 | 0.00 | 0.00 | 53 | 1012.5 |
| 20260504023057 | 51 | 0 | 0.0 | 1.0 | 0.00 | 0.00 | 0.00 | 55 | 1012.7 |
| 20260504021539 | 52 | 0 | 0.0 | 0.0 | 0.00 | 0.00 | 0.00 | 52 | 1012.7 |
| 20260504020039 | 52 | 0 | 0.0 | 3.0 | 0.00 | 0.00 | 0.00 | 52 | 1012.7 |
| 20260504014546 | 52 | 133 | 2.0 | 10.0 | 0.00 | 0.00 | 0.00 | 52 | 1012.7 |
| 20260504013044 | 52 | 208 | 3.0 | 12.0 | 0.00 | 0.00 | 0.00 | 51 | 1012.9 |
| 20260504011536 | 53 | 355 | 3.0 | 12.0 | 0.00 | 0.00 | 0.00 | 48 | 1012.9 |
| 20260504010051 | 53 | 46 | 1.0 | 12.0 | 0.00 | 0.00 | 0.00 | 48 | 1012.6 |
| 20260504004555 | 52 | 188 | 3.0 | 11.0 | 0.00 | 0.00 | 0.00 | 51 | 1012.6 |
| 20260504003039 | 52 | 182 | 2.0 | 8.0 | 0.00 | 0.00 | 0.00 | 52 | 1012.7 |
| 20260504001537 | 52 | 0 | 0.0 | 13.0 | 0.00 | 0.00 | 0.00 | 51 | 1012.3 |
| 20260504000037 | 53 | 52 | 0.0 | 3.0 | 0.00 | 0.00 | 0.00 | 51 | 1012.4 |
| 20260503234546 | 53 | 99 | 1.0 | 9.0 | 0.00 | 0.00 | 0.00 | 49 | 1012.3 |
| 20260503233039 | 53 | 55 | 5.0 | 19.0 | 0.00 | 0.00 | 0.00 | 49 | 1012.2 |